{"data":{"norad_id":57919,"epoch":"2026-09-20T10:44:28.656096Z","epoch_age_seconds":138958,"freshness":"FRESH","line1":"1 57919U 23147G   26263.44755389  .00001185  00000+0  52600-4 0  9993","line2":"2 57919  43.0039 305.3244 0001442 273.1717  86.8970 15.27578957166414","mean_motion":15.27578957,"eccentricity":0.0001442,"inclination_deg":43.0039,"raan_deg":305.3244,"arg_perigee_deg":273.1717,"mean_anomaly_deg":86.897,"bstar":5.26e-5,"rev_number":16641,"period_min":94.26681307708,"perigee_km":482.06283567324,"apogee_km":484.04160264405,"semimajor_km":6861.1892191586,"source":"CELESTRAK","updated_at":"2026-09-21T09:00:33.741318Z"}}